Time,TemperatureF,DewpointF,PressureIn,WindDirection,WindDirectionDegrees,WindSpeedMPH,WindSpeedGustMPH,Humidity,HourlyPrecipIn,Conditions,Clouds,dailyrainin,SoftwareType,DateUTC
2013-07-13 00:01:00,68.0,61.0,29.96,North,0,0.0,0.0,78,0.00,,,0.00,,2013-07-13 05:01:00,
2013-07-13 00:11:00,68.0,61.0,29.96,NE,42,0.0,3.0,78,0.00,,,0.00,,2013-07-13 05:11:00,
2013-07-13 00:22:00,68.0,61.0,29.96,North,0,0.0,0.0,79,0.00,,,0.00,,2013-07-13 05:22:00,
2013-07-13 00:32:00,68.0,61.0,29.96,North,0,0.0,0.0,79,0.00,,,0.00,,2013-07-13 05:32:00,
2013-07-13 00:42:00,68.0,62.0,29.96,North,0,0.0,0.0,80,0.00,,,0.00,,2013-07-13 05:42:00,
2013-07-13 00:52:00,67.0,61.0,29.96,North,0,0.0,0.0,81,0.00,,,0.00,,2013-07-13 05:52:00,
2013-07-13 01:01:00,67.0,61.0,29.95,NE,45,0.0,1.0,81,0.00,,,0.00,,2013-07-13 06:01:00,
2013-07-13 01:11:00,67.0,61.0,29.95,North,0,0.0,0.0,81,0.00,,,0.00,,2013-07-13 06:11:00,
2013-07-13 01:22:00,66.0,60.0,29.95,North,0,0.0,0.0,82,0.00,,,0.00,,2013-07-13 06:22:00,
2013-07-13 01:32:00,66.0,60.0,29.95,NE,44,0.0,1.0,81,0.00,,,0.00,,2013-07-13 06:32:00,
2013-07-13 01:43:00,67.0,60.0,29.95,NE,45,0.0,3.0,78,0.00,,,0.00,,2013-07-13 06:43:00,
2013-07-13 01:52:00,68.0,60.0,29.95,NE,43,0.0,1.0,75,0.00,,,0.00,,2013-07-13 06:52:00,
2013-07-13 02:02:00,69.0,60.0,29.94,NE,49,0.0,4.0,74,0.00,,,0.00,,2013-07-13 07:02:00,
2013-07-13 02:11:00,69.0,60.0,29.94,NE,54,0.0,3.0,73,0.00,,,0.00,,2013-07-13 07:11:00,
2013-07-13 02:22:00,69.0,60.0,29.94,NE,54,0.0,3.0,72,0.00,,,0.00,,2013-07-13 07:22:00,
2013-07-13 02:33:00,69.0,60.0,29.94,ENE,58,0.0,3.0,72,0.00,,,0.00,,2013-07-13 07:33:00,
2013-07-13 03:02:00,68.0,61.0,29.94,North,0,0.0,0.0,77,0.00,,,0.00,,2013-07-13 08:02:00,
2013-07-13 03:11:00,67.0,60.0,29.94,North,0,0.0,0.0,79,0.00,,,0.00,,2013-07-13 08:11:00,
2013-07-13 03:22:00,66.0,60.0,29.94,North,0,0.0,0.0,81,0.00,,,0.00,,2013-07-13 08:22:00,
2013-07-13 03:33:00,66.0,60.0,29.94,North,0,0.0,0.0,82,0.00,,,0.00,,2013-07-13 08:33:00,
2013-07-13 03:43:00,65.0,60.0,29.94,North,0,0.0,0.0,84,0.00,,,0.00,,2013-07-13 08:43:00,
2013-07-13 03:52:00,64.0,59.0,29.94,North,0,0.0,0.0,85,0.00,,,0.00,,2013-07-13 08:52:00,
2013-07-13 04:02:00,64.0,60.0,29.94,North,0,0.0,0.0,86,0.00,,,0.00,,2013-07-13 09:02:00,
2013-07-13 04:11:00,64.0,60.0,29.94,North,0,0.0,0.0,87,0.00,,,0.00,,2013-07-13 09:11:00,
2013-07-13 04:22:00,63.0,59.0,29.94,North,0,0.0,0.0,87,0.00,,,0.00,,2013-07-13 09:22:00,
2013-07-13 04:33:00,63.0,59.0,29.94,North,0,0.0,0.0,88,0.00,,,0.00,,2013-07-13 09:33:00,
2013-07-13 04:43:00,63.0,60.0,29.94,North,0,0.0,0.0,89,0.00,,,0.00,,2013-07-13 09:43:00,
2013-07-13 04:53:00,63.0,60.0,29.94,North,0,0.0,0.0,89,0.00,,,0.00,,2013-07-13 09:53:00,
2013-07-13 05:01:00,63.0,60.0,29.94,North,0,0.0,0.0,89,0.00,,,0.00,,2013-07-13 10:01:00,
2013-07-13 05:11:00,62.0,59.0,29.94,North,0,0.0,0.0,90,0.00,,,0.00,,2013-07-13 10:11:00,
2013-07-13 05:22:00,62.0,59.0,29.95,North,0,0.0,0.0,90,0.00,,,0.00,,2013-07-13 10:22:00,
2013-07-13 05:32:00,61.0,58.0,29.96,North,0,0.0,0.0,91,0.00,,,0.00,,2013-07-13 10:32:00,
2013-07-13 05:43:00,61.0,59.0,29.96,North,0,0.0,0.0,92,0.00,,,0.00,,2013-07-13 10:43:00,
2013-07-13 05:52:00,60.0,58.0,29.96,North,0,0.0,0.0,92,0.00,,,0.00,,2013-07-13 10:52:00,
2013-07-13 06:02:00,60.0,58.0,29.96,North,0,0.0,0.0,92,0.00,,,0.00,,2013-07-13 11:02:00,
2013-07-13 06:11:00,60.0,58.0,29.96,North,0,0.0,0.0,92,0.00,,,0.00,,2013-07-13 11:11:00,
2013-07-13 06:22:00,60.0,58.0,29.96,North,0,0.0,0.0,93,0.00,,,0.00,,2013-07-13 11:22:00,
2013-07-13 06:32:00,60.0,58.0,29.96,North,0,0.0,0.0,94,0.00,,,0.00,,2013-07-13 11:32:00,
2013-07-13 06:42:00,61.0,59.0,29.96,North,0,0.0,0.0,94,0.00,,,0.00,,2013-07-13 11:42:00,
2013-07-13 06:52:00,63.0,61.0,29.97,NE,56,0.0,1.0,94,0.00,,,0.00,,2013-07-13 11:52:00,
2013-07-13 07:02:00,64.0,62.0,29.97,North,0,0.0,0.0,92,0.00,,,0.00,,2013-07-13 12:02:00,
2013-07-13 07:12:00,64.0,61.0,29.97,NNE,17,0.0,1.0,90,0.00,,,0.00,,2013-07-13 12:12:00,
2013-07-13 07:22:00,66.0,62.0,29.97,North,0,0.0,0.0,88,0.00,,,0.00,,2013-07-13 12:22:00,
2013-07-13 08:01:00,71.0,61.0,29.96,NNE,14,0.0,3.0,70,0.00,,,0.00,,2013-07-13 13:01:00,
2013-07-13 08:12:00,72.0,62.0,29.96,NNE,29,1.0,5.0,70,0.00,,,0.00,,2013-07-13 13:12:00,
2013-07-13 08:22:00,72.0,61.0,29.96,NE,41,0.0,3.0,69,0.00,,,0.00,,2013-07-13 13:22:00,
2013-07-13 08:32:00,73.0,62.0,29.96,NE,35,0.0,3.0,69,0.00,,,0.00,,2013-07-13 13:32:00,
2013-07-13 08:43:00,73.0,61.0,29.96,NE,56,0.0,5.0,67,0.00,,,0.00,,2013-07-13 13:43:00,
2013-07-13 08:53:00,74.0,61.0,29.97,NE,54,0.0,5.0,65,0.00,,,0.00,,2013-07-13 13:53:00,
2013-07-13 09:02:00,75.0,63.0,29.96,NE,50,1.0,6.0,66,0.00,,,0.00,,2013-07-13 14:02:00,
2013-07-13 09:11:00,75.0,61.0,29.96,NE,47,1.0,4.0,62,0.00,,,0.00,,2013-07-13 14:11:00,
2013-07-13 09:22:00,76.0,62.0,29.96,NE,45,0.0,2.0,63,0.00,,,0.00,,2013-07-13 14:22:00,
2013-07-13 09:32:00,77.0,63.0,29.96,ENE,60,0.0,6.0,61,0.00,,,0.00,,2013-07-13 14:32:00,
2013-07-13 09:43:00,77.0,62.0,29.97,NE,44,0.0,6.0,59,0.00,,,0.00,,2013-07-13 14:43:00,
2013-07-13 09:53:00,77.0,60.0,29.97,NE,40,1.0,5.0,56,0.00,,,0.00,,2013-07-13 14:53:00,
2013-07-13 10:02:00,78.0,61.0,29.96,NE,55,0.0,5.0,55,0.00,,,0.00,,2013-07-13 15:02:00,
2013-07-13 10:12:00,78.0,61.0,29.96,NE,55,0.0,5.0,55,0.00,,,0.00,,2013-07-13 15:12:00,
2013-07-13 10:22:00,78.0,62.0,29.96,NE,54,0.0,6.0,59,0.00,,,0.00,,2013-07-13 15:22:00,
2013-07-13 10:33:00,78.0,61.0,29.96,NE,48,0.0,6.0,56,0.00,,,0.00,,2013-07-13 15:33:00,
2013-07-13 10:43:00,78.0,61.0,29.97,NE,53,1.0,7.0,56,0.00,,,0.00,,2013-07-13 15:43:00,
2013-07-13 10:53:00,79.0,62.0,29.97,ENE,64,1.0,7.0,56,0.00,,,0.00,,2013-07-13 15:53:00,
2013-07-13 11:02:00,79.0,61.0,29.97,ENE,70,0.0,7.0,54,0.00,,,0.00,,2013-07-13 16:02:00,
2013-07-13 11:11:00,79.0,61.0,29.98,NE,34,0.0,6.0,55,0.00,,,0.00,,2013-07-13 16:11:00,
2013-07-13 11:22:00,80.0,61.0,29.98,ENE,75,2.0,7.0,52,0.00,,,0.00,,2013-07-13 16:22:00,
2013-07-13 11:33:00,80.0,61.0,29.98,ENE,57,2.0,8.0,53,0.00,,,0.00,,2013-07-13 16:33:00,
2013-07-13 11:43:00,80.0,61.0,29.97,East,80,2.0,8.0,52,0.00,,,0.00,,2013-07-13 16:43:00,
2013-07-13 11:53:00,80.0,61.0,29.97,ENE,63,2.0,7.0,52,0.00,,,0.00,,2013-07-13 16:53:00,
2013-07-13 12:01:00,80.0,62.0,29.98,East,83,3.0,10.0,54,0.00,,,0.00,,2013-07-13 17:01:00,
2013-07-13 12:12:00,80.0,61.0,29.98,ENE,74,2.0,7.0,53,0.00,,,0.00,,2013-07-13 17:12:00,
2013-07-13 12:22:00,80.0,61.0,29.98,ENE,59,2.0,7.0,52,0.00,,,0.00,,2013-07-13 17:22:00,
2013-07-13 12:33:00,80.0,60.0,29.97,ENE,62,2.0,10.0,51,0.00,,,0.00,,2013-07-13 17:33:00,
2013-07-13 12:43:00,81.0,61.0,29.97,ENE,63,1.0,6.0,51,0.00,,,0.00,,2013-07-13 17:43:00,
2013-07-13 12:52:00,81.0,60.0,29.97,NNE,23,0.0,6.0,49,0.00,,,0.00,,2013-07-13 17:52:00,
2013-07-13 13:01:00,80.0,59.0,29.97,East,99,1.0,11.0,48,0.00,,,0.00,,2013-07-13 18:01:00,
2013-07-13 13:11:00,81.0,60.0,29.97,ENE,57,0.0,3.0,49,0.00,,,0.00,,2013-07-13 18:11:00,
2013-07-13 13:22:00,82.0,62.0,29.96,NE,50,0.0,6.0,51,0.00,,,0.00,,2013-07-13 18:22:00,
2013-07-13 13:32:00,82.0,60.0,29.96,ENE,67,1.0,6.0,48,0.00,,,0.00,,2013-07-13 18:32:00,
2013-07-13 13:44:00,82.0,60.0,29.96,NE,55,1.0,6.0,48,0.00,,,0.00,,2013-07-13 18:44:00,
2013-07-13 13:53:00,82.0,60.0,29.95,ENE,62,0.0,4.0,48,0.00,,,0.00,,2013-07-13 18:53:00,
2013-07-13 14:02:00,82.0,60.0,29.95,East,79,1.0,7.0,48,0.00,,,0.00,,2013-07-13 19:02:00,
2013-07-13 14:11:00,84.0,62.0,29.95,ENE,61,0.0,6.0,47,0.00,,,0.00,,2013-07-13 19:11:00,
2013-07-13 14:22:00,84.0,62.0,29.95,ENE,61,0.0,6.0,47,0.00,,,0.00,,2013-07-13 19:22:00,
2013-07-13 14:32:00,84.0,63.0,29.95,NE,52,0.0,5.0,49,0.00,,,0.00,,2013-07-13 19:32:00,
2013-07-13 14:44:00,83.0,59.0,29.94,ENE,68,0.0,4.0,45,0.00,,,0.00,,2013-07-13 19:44:00,
2013-07-13 14:52:00,83.0,62.0,29.94,North,0,0.0,0.0,49,0.00,,,0.00,,2013-07-13 19:52:00,
2013-07-13 15:01:00,83.0,62.0,29.94,NE,43,0.0,4.0,49,0.00,,,0.00,,2013-07-13 20:01:00,
2013-07-13 15:11:00,83.0,62.0,29.93,NE,51,0.0,3.0,49,0.00,,,0.00,,2013-07-13 20:11:00,
2013-07-13 15:22:00,83.0,59.0,29.93,ENE,74,0.0,6.0,45,0.00,,,0.00,,2013-07-13 20:22:00,
2013-07-13 15:33:00,83.0,61.0,29.93,East,82,0.0,6.0,47,0.00,,,0.00,,2013-07-13 20:33:00,
2013-07-13 15:43:00,83.0,58.0,29.93,ENE,67,0.0,3.0,43,0.00,,,0.00,,2013-07-13 20:43:00,
2013-07-13 15:52:00,83.0,59.0,29.93,East,80,0.0,4.0,44,0.00,,,0.00,,2013-07-13 20:52:00,
2013-07-13 16:02:00,83.0,59.0,29.92,East,86,0.0,4.0,45,0.00,,,0.00,,2013-07-13 21:02:00,
2013-07-13 16:12:00,83.0,59.0,29.92,ENE,75,0.0,5.0,45,0.00,,,0.00,,2013-07-13 21:12:00,
2013-07-13 16:22:00,83.0,59.0,29.92,East,79,0.0,4.0,45,0.00,,,0.00,,2013-07-13 21:22:00,
2013-07-13 16:32:00,83.0,59.0,29.93,ENE,62,0.0,1.0,45,0.00,,,0.00,,2013-07-13 21:32:00,
2013-07-13 16:42:00,84.0,60.0,29.93,NE,51,0.0,6.0,45,0.00,,,0.00,,2013-07-13 21:42:00,
2013-07-13 16:53:00,84.0,60.0,29.93,NE,47,0.0,2.0,44,0.00,,,0.00,,2013-07-13 21:53:00,
2013-07-13 17:01:00,82.0,61.0,29.93,East,87,0.0,7.0,49,0.00,,,0.00,,2013-07-13 22:01:00,
2013-07-13 17:12:00,81.0,62.0,29.93,East,90,0.0,4.0,53,0.00,,,0.00,,2013-07-13 22:12:00,
2013-07-13 17:22:00,80.0,62.0,29.93,North,0,0.0,0.0,55,0.00,,,0.00,,2013-07-13 22:22:00,
2013-07-13 17:32:00,81.0,64.0,29.93,North,0,0.0,0.0,56,0.00,,,0.00,,2013-07-13 22:32:00,
2013-07-13 17:43:00,81.0,64.0,29.93,East,86,0.0,1.0,56,0.00,,,0.00,,2013-07-13 22:43:00,
2013-07-13 17:53:00,81.0,62.0,29.93,ENE,65,0.0,3.0,52,0.00,,,0.00,,2013-07-13 22:53:00,
2013-07-13 18:01:00,81.0,64.0,29.93,NE,56,0.0,1.0,56,0.00,,,0.00,,2013-07-13 23:01:00,
2013-07-13 18:11:00,81.0,65.0,29.93,NE,41,0.0,1.0,58,0.00,,,0.00,,2013-07-13 23:11:00,
2013-07-13 18:22:00,81.0,65.0,29.93,NE,41,0.0,1.0,58,0.00,,,0.00,,2013-07-13 23:22:00,
2013-07-13 18:32:00,81.0,64.0,29.93,NE,38,0.0,1.0,57,0.00,,,0.00,,2013-07-13 23:32:00,
2013-07-13 18:42:00,81.0,62.0,29.92,NE,38,0.0,1.0,53,0.00,,,0.00,,2013-07-13 23:42:00,
2013-07-13 18:53:00,81.0,64.0,29.92,North,0,0.0,0.0,57,0.00,,,0.00,,2013-07-13 23:53:00,
2013-07-13 19:01:00,81.0,65.0,29.92,North,0,0.0,0.0,58,0.00,,,0.00,,2013-07-14 00:01:00,
2013-07-13 19:11:00,81.0,65.0,29.92,North,0,0.0,0.0,59,0.00,,,0.00,,2013-07-14 00:11:00,
2013-07-13 19:21:00,80.0,65.0,29.92,NE,38,0.0,1.0,60,0.00,,,0.00,,2013-07-14 00:21:00,
2013-07-13 19:33:00,80.0,64.0,29.92,NE,38,0.0,2.0,58,0.00,,,0.00,,2013-07-14 00:33:00,
2013-07-13 19:42:00,80.0,64.0,29.92,North,0,0.0,0.0,59,0.00,,,0.00,,2013-07-14 00:42:00,
2013-07-13 19:53:00,79.0,63.0,29.92,North,0,0.0,0.0,59,0.00,,,0.00,,2013-07-14 00:53:00,
2013-07-13 20:02:00,79.0,64.0,29.93,North,0,0.0,0.0,61,0.00,,,0.00,,2013-07-14 01:02:00,
2013-07-13 20:11:00,78.0,64.0,29.93,North,0,0.0,0.0,62,0.00,,,0.00,,2013-07-14 01:11:00,
2013-07-13 20:22:00,77.0,63.0,29.93,North,0,0.0,0.0,63,0.00,,,0.00,,2013-07-14 01:22:00,
2013-07-13 20:32:00,76.0,64.0,29.93,North,0,0.0,0.0,66,0.00,,,0.00,,2013-07-14 01:32:00,
2013-07-13 20:43:00,75.0,64.0,29.93,North,0,0.0,0.0,68,0.00,,,0.00,,2013-07-14 01:43:00,
2013-07-13 20:52:00,75.0,64.0,29.93,North,0,0.0,0.0,69,0.00,,,0.00,,2013-07-14 01:52:00,
2013-07-13 21:01:00,74.0,65.0,29.94,North,0,0.0,0.0,73,0.00,,,0.00,,2013-07-14 02:01:00,
2013-07-13 21:11:00,73.0,65.0,29.94,North,0,0.0,0.0,75,0.00,,,0.00,,2013-07-14 02:11:00,
2013-07-13 21:22:00,72.0,64.0,29.94,North,0,0.0,0.0,77,0.00,,,0.00,,2013-07-14 02:22:00,
2013-07-13 21:32:00,72.0,65.0,29.94,North,0,0.0,0.0,78,0.00,,,0.00,,2013-07-14 02:32:00,
2013-07-13 21:43:00,72.0,65.0,29.94,North,0,0.0,0.0,78,0.00,,,0.00,,2013-07-14 02:43:00,
2013-07-13 21:53:00,72.0,65.0,29.95,North,0,0.0,0.0,80,0.00,,,0.00,,2013-07-14 02:53:00,
2013-07-13 22:01:00,72.0,65.0,29.95,North,0,0.0,0.0,80,0.00,,,0.00,,2013-07-14 03:01:00,
2013-07-13 22:11:00,71.0,65.0,29.95,North,0,0.0,0.0,81,0.00,,,0.00,,2013-07-14 03:11:00,
2013-07-13 22:22:00,71.0,65.0,29.95,North,0,0.0,0.0,80,0.00,,,0.00,,2013-07-14 03:22:00,
2013-07-13 22:32:00,71.0,65.0,29.95,North,0,0.0,0.0,80,0.00,,,0.00,,2013-07-14 03:32:00,
2013-07-13 22:43:00,71.0,65.0,29.95,North,0,0.0,0.0,80,0.00,,,0.00,,2013-07-14 03:43:00,
2013-07-13 22:53:00,71.0,64.0,29.96,North,0,0.0,0.0,79,0.00,,,0.00,,2013-07-14 03:53:00,
2013-07-13 23:02:00,71.0,65.0,29.96,North,0,0.0,0.0,80,0.00,,,0.00,,2013-07-14 04:02:00,
2013-07-13 23:11:00,71.0,65.0,29.96,North,0,0.0,0.0,81,0.00,,,0.00,,2013-07-14 04:11:00,
2013-07-13 23:22:00,71.0,64.0,29.96,North,0,0.0,0.0,79,0.00,,,0.00,,2013-07-14 04:22:00,
2013-07-13 23:32:00,72.0,64.0,29.96,North,0,0.0,0.0,76,0.00,,,0.00,,2013-07-14 04:32:00,
2013-07-13 23:42:00,72.0,63.0,29.96,North,0,0.0,0.0,73,0.00,,,0.00,,2013-07-14 04:42:00,
2013-07-13 23:53:00,72.0,63.0,29.96,North,0,0.0,0.0,74,0.00,,,0.00,,2013-07-14 04:53:00,